Regional Weather Roundup
Issued by NWS New Orleans/Baton Rouge, LA

Home | Current Version | Previous Version | Text Only | Print | Product List | Glossary On
Versions: 1 2 3 4 5 6 7 8 9 10 11 12 13 14 15 16 17 18 19 20 21 22 23 24 25 26 27 28 29 30 31 32 33 34 35 36 37 38 39 40 41 42 43 44 45 46 47 48 49 50
000
ASUS44 KLIX 011210
RWRLIX
NEW ORLEANS REGIONAL WEATHER ROUNDUP
NATIONAL WEATHER SERVICE NEW ORLEANS LA
600 AM CST SUN FEB 01 2015

NOTE: "FAIR" INDICATES FEW OR NO CLOUDS BELOW 12,000 FEET WITH NO
      SIGNIFICANT WEATHER AND/OR OBSTRUCTIONS TO VISIBILITY.
      SKY/WX - SKY CONDITION AND SIGNIFICANT WEATHER.
      TMP - AIR TEMPERATURE.     DP    - DEWPOINT TEMPERATURE.
      RH  - RELATIVE HUMIDITY.   PRES  - PRESSURE.
      HI  - HEAT INDEX.          WCI   - WIND CHILL INDEX.

*  THESE STATIONS ARE NOT NWS OR FAA STATIONS AND ARE NOT UNDER
   NWS QUALITY CONTROL.

LAZ038-040-048-061>063-065>067-069-011300-
SOUTHEAST LOUISIANA

CITY           SKY/WX    TMP DP  RH WIND       PRES   REMARKS
N.O. AUDUBON     N/A     61  58  89 MISG        N/A
6HR MIN TEMP:  58; 6HR MAX TEMP:  62; 6HR PCP:  0.01;

N.O. INTL ARPT LGT RAIN  61  56  83 S6        30.04R
6HR MIN TEMP:  58; 6HR MAX TEMP:  62; 6HR PCP:  0.01;

N.O. LAKEFRONT LGT RAIN  63  56  78 S5        30.04R
6HR MIN TEMP:  60; 6HR MAX TEMP:  63; 6HR PCP: TRACE;

N.O. DOWNTOWN* NOT AVBL
SLIDELL        LGT RAIN  61  56  83 SE5       30.03S
6HR MIN TEMP:  53; 6HR MAX TEMP:  63; 6HR PCP: TRACE;

BATON ROUGE    CLOUDY    58  54  86 E3        29.99R
6HR MIN TEMP:  54; 6HR MAX TEMP:  58; 6HR PCP: TRACE;

BOOTHVILLE     PTCLDY    59  56  89 SE7       30.03S
6HR MIN TEMP:  58; 6HR MAX TEMP:  60;

BELLE CHASSE   LGT RAIN  62  55  77 SE5       30.02R
6HR MIN TEMP:  59; 6HR MAX TEMP:  63; 6HR PCP: TRACE;

BOGALUSA*      LGT RAIN  56  52  86 CALM      30.06R
6HR MIN TEMP:  52; 6HR MAX TEMP:  58;

GALLIANO*      HVY RAIN  63  61  92 W6        30.03R
6HR MIN TEMP:  63; 6HR MAX TEMP:  66; 6HR PCP:  0.10;

NEW ROADS*     CLOUDY    57  54  88 SE7       29.98F
6HR MIN TEMP:  54; 6HR MAX TEMP:  58;

GONZALES*        N/A     59  59 100 SE8       29.98S
6HR MIN TEMP:  55; 6HR MAX TEMP:  60; 6HR PCP:  0.02;

HAMMOND*       CLOUDY    57  54  88 SE7       30.02F
HOUMA*         NOT AVBL
PORT FOURCHON*   N/A     66  61  82 W6G15     30.05R

$$

MSZ070-080>082-011300-
SOUTHERN MISSISSIPPI

CITY           SKY/WX    TMP DP  RH WIND       PRES   REMARKS
MCCOMB         CLOUDY    56  53  90 S8        30.01R
6HR MIN TEMP:  50; 6HR MAX TEMP:  56; 6HR PCP: TRACE;

GULFPORT       CLOUDY    59  55  87 E5        30.05R
6HR MIN TEMP:  50; 6HR MAX TEMP:  59;

BILOXI         CLOUDY    61  56  84 SE10      30.05R
6HR MIN TEMP:  49; 6HR MAX TEMP:  61;

PASCAGOULA     CLOUDY    51  51 100 CALM      30.06S
6HR MIN TEMP:  41; 6HR MAX TEMP:  52;


$$

COASTAL OBSERVATIONS
LAKE AND NEARSHORE STATIONS

STATION/POSITION TIME  TEMP    WIND        PRES    WAVE
                       AIR SEA DIR/SP/G            HT/PER
                 (UTC) (F)     (DEG/KT/KT) (MB)    (FT/S)
PASCAGOULA       1200   61     140/  7/ 12 1017.0
WAVELAND YACHT   1200   60     140/  6/  7 1016.3
GRAND ISLE       1200   65 62  140/  7/ 11 1016.6
SOUTHWEST PASS   1200   63 49  140/ 10/ 13 1016.7
NEW CANAL        1200   62 55  170/  3/  5 1017.2
SHELL BEACH      1200   62 56  130/ 10/ 14 1016.4

OFFSHORE STATIONS

STATION/POSITION TIME  TEMP    WIND        PRES    WAVE
                       AIR SEA DIR/SP/G            HT/PER
                 (UTC) (F)     (DEG/KT/KT) (MB)    (FT/S)
64 S DAUPHIN ISL 1148   69 69  160/ 21/ 25 1017.8

$$



USA.gov is the U.S. government's official web portal to all federal, state and local government web resources and services.